sat.trackr.live / text

‹ back to catalog

STARLINK-30434

NORAD 57875 · 2023-144M

PAYLOAD ACTIVE UNKNOWN

§ Identity

Operator
Country
US
Launch date
2023-09-16
Launch site
AFETR
Launch vehicle
Mass (kg)
RCS (m²)

Purposes: comms

External: N2YO · Heavens-Above · Gunter

§ Orbital elements

Epoch: 2026-09-20T11:15:43.720128Z

Period
94.27 min
Inclination
43.0033°
Eccentricity
0.0001210
Mean motion
15.27571337 rev/d
Perigee alt
482.2 km
Apogee alt
483.9 km
Semi-major
6,861.2 km
B*
4.5010e-6
RAAN
265.4338°
Arg perigee
288.3869°
Mean anomaly
71.6851°
Rev number
16,743

§ Raw data

STARLINK-304341 57875U 23144M   26263.46925602 -.00000138  00000+0  45010-5 0  99962 57875  43.0033 265.4338 0001210 288.3869  71.6851 15.27571337167436

JSON: /api/v1/satellites/57875 · /tle

For live sub-satellite position, see the globe view (requires WebGL).

§ Visibility from observer

Set your observer location to see the next 7 days of passes ≥ 10°. The values pass through the URL so the page stays shareable.

No JS? Fill the form by hand. The geolocation button needs JavaScript.